Latest Weather Observations for Scoresby

IDV60901

Issued at 8:25 pm EDT Friday 24 October 2014 (issued every 10 minutes, with the page automatically refreshed every 10 minutes)

About weather observations | Map of Melbourne area stations | Latest observations for Melbourne area | Other Formats
Station Details ID: 086104 Name: SCORESBY RESEARCH INSTITUTE Lat: -37.87 Lon: 145.26 Height: 80.0 m
Data from the previous 72 hours. | See also: Recent months at Scoresby
Date/Time
EDT
Tmp

°C
App
Tmp
°C
Dew
Point
°C
Rel
Hum
%
Delta-T

°C
Wind Press
QNH
hPa
Press
MSL
hPa
Rain
since
9 am
mm
Dir
 
Spd
km/h
Gust
km/h
Spd
kts
Gust
kts
24/08:00pm 20.1 20.1 14.2 69 3.4 SSW 7 11 4 6 - - 0.0
24/07:30pm 22.8 21.8 13.3 55 5.5 SSW 11 20 6 11 - - 0.0
24/07:00pm 24.7 23.8 12.6 47 7.0 SW 9 17 5 9 - - 0.0
24/06:30pm 26.8 24.6 12.1 40 8.5 SW 15 20 8 11 - - 0.0
24/06:00pm 29.5 27.5 8.5 27 11.6 NW 9 17 5 9 - - 0.0
24/05:30pm 29.9 27.8 8.3 26 11.9 W 9 19 5 10 - - 0.0
24/05:00pm 29.0 27.9 12.0 35 9.9 WSW 9 15 5 8 - - 0.0
24/04:30pm 29.1 27.5 12.9 37 9.6 SSW 13 17 7 9 - - 0.0
24/04:00pm 28.9 28.7 15.8 45 8.1 SSW 11 20 6 11 - - 0.0
24/03:30pm 27.9 28.0 14.5 44 8.1 S 7 11 4 6 - - 0.0
24/03:00pm 28.4 29.1 14.6 43 8.4 SSW 4 11 2 6 - - 0.0
24/02:30pm 28.6 28.6 15.2 44 8.2 W 9 17 5 9 - - 0.0
24/02:00pm 28.4 28.7 14.6 43 8.4 WNW 6 13 3 7 - - 0.0
24/01:30pm 27.8 26.9 13.7 42 8.4 WSW 11 20 6 11 - - 0.0
24/01:00pm 27.6 26.6 14.6 45 7.9 W 13 20 7 11 - - 0.0
24/12:30pm 27.8 27.0 15.1 46 7.7 NW 13 20 7 11 - - 0.0
24/12:00pm 26.8 26.9 15.5 50 6.9 NNW 9 19 5 10 - - 0.0
24/11:30am 25.8 25.6 14.6 50 6.7 N 9 20 5 11 - - 0.0
24/11:00am 24.4 23.9 14.8 55 5.7 N 11 20 6 11 - - 0.0
24/10:30am 23.2 23.3 14.5 58 5.2 N 7 13 4 7 - - 0.0
24/10:00am 21.9 22.3 13.8 60 4.7 NNE 4 9 2 5 - - 0.0
24/09:30am 19.9 20.6 14.5 71 3.2 NNE 4 7 2 4 - - 0.0
24/09:00am 17.7 18.3 14.2 80 2.0 NNE 4 7 2 4 - - 0.0
24/08:30am 16.1 16.9 13.8 86 1.3 N 2 6 1 3 - - 0.0
24/08:00am 14.8 15.5 13.5 92 0.7 N 2 6 1 3 - - 0.0
24/07:30am 14.4 14.7 13.3 93 0.6 N 4 6 2 3 - - 0.0
24/07:00am 14.5 15.1 13.2 92 0.7 NNE 2 6 1 3 - - 0.0
24/06:30am 14.4 15.4 13.1 92 0.7 CALM 0 4 0 2 - - 0.0
24/06:00am 14.4 15.1 13.3 93 0.6 NNW 2 7 1 4 - - 0.0
24/05:30am 14.5 14.7 13.2 92 0.7 N 4 7 2 4 - - 0.0
24/05:00am 14.4 15.0 13.1 92 0.7 NNW 2 4 1 2 - - 0.0
24/04:30am 14.5 15.1 13.2 92 0.7 NNE 2 6 1 3 - - 0.0
24/04:00am 14.6 15.6 13.1 91 0.8 CALM 0 0 0 0 - - 0.0
24/03:30am 14.7 15.7 13.1 90 0.9 CALM 0 0 0 0 - - 0.0
24/03:00am 14.8 15.8 13.2 90 0.9 CALM 0 0 0 0 - - 0.0
24/02:30am 14.8 15.4 13.2 90 0.9 NW 2 4 1 2 - - 0.0
24/02:00am 14.8 15.5 13.3 91 0.8 N 2 7 1 4 - - 0.0
24/01:30am 14.6 15.3 13.5 93 0.6 NNE 2 4 1 2 - - 0.0
24/01:00am 14.4 14.7 13.4 94 0.6 NNE 4 6 2 3 - - 0.0
24/12:30am 13.3 13.6 12.2 93 0.6 NE 2 6 1 3 - - 0.0
24/12:00am 13.7 14.5 12.6 93 0.6 ENE 0 0 0 0 - - 0.0
 
Date/Time
EDT
Tmp

°C
App
Tmp
°C
Dew
Point
°C
Rel
Hum
%
Delta-T

°C
Wind Press
QNH
hPa
Press
MSL
hPa
Rain
since
9 am
mm
Dir
 
Spd
km/h
Gust
km/h
Spd
kts
Gust
kts
23/11:30pm 13.4 14.0 11.8 90 0.9 CALM 0 0 0 0 - - 0.0
23/11:00pm 14.3 15.0 12.3 88 1.1 CALM 0 0 0 0 - - 0.0
23/10:30pm 15.4 16.2 12.7 84 1.5 CALM 0 2 0 1 - - 0.0
23/10:00pm 15.9 16.5 13.0 83 1.6 SE 2 7 1 4 - - 0.0
23/09:30pm 16.2 15.5 13.1 82 1.7 SE 9 13 5 7 - - 0.0
23/09:00pm 16.6 15.9 13.3 81 1.9 SE 9 15 5 8 - - 0.0
23/08:30pm 17.0 15.6 13.5 80 2.0 SE 13 22 7 12 - - 0.0
23/08:00pm 17.4 16.5 13.7 79 2.1 SE 11 20 6 11 - - 0.0
23/07:30pm 18.0 16.0 13.9 77 2.3 SE 17 30 9 16 - - 0.0
23/07:00pm 19.1 18.0 14.4 74 2.7 SSE 13 20 7 11 - - 0.0
23/06:30pm 20.1 19.2 14.9 72 3.1 SSE 13 22 7 12 - - 0.0
23/06:00pm 21.0 19.4 15.1 69 3.5 SSE 17 28 9 15 - - 0.0
23/05:30pm 21.7 21.5 15.8 69 3.5 SE 11 26 6 14 - - 0.0
23/05:00pm 21.7 20.8 15.8 69 3.5 SSE 15 26 8 14 - - 0.0
23/04:30pm 22.2 21.7 16.0 68 3.7 SSE 13 28 7 15 - - 0.0
23/04:00pm 21.8 20.9 14.9 65 4.1 SSE 13 22 7 12 - - 0.0
23/03:30pm 22.0 22.2 15.8 68 3.7 SSE 9 17 5 9 - - 0.0
23/03:00pm 20.9 19.2 14.8 68 3.6 SSE 17 22 9 12 - - 0.0
23/02:30pm 20.6 19.2 14.5 68 3.6 SSE 15 24 8 13 - - 0.0
23/02:00pm 19.8 19.2 14.6 72 3.0 SE 11 19 6 10 - - 0.0
23/01:30pm 18.2 17.4 13.9 76 2.5 SSE 11 17 6 9 - - 0.0
23/01:00pm 17.3 17.0 13.4 78 2.2 S 7 17 4 9 - - 0.0
23/12:30pm 16.4 15.7 13.1 81 1.8 S 9 17 5 9 - - 0.0
23/12:00pm 16.4 15.2 12.9 80 2.0 SSE 11 15 6 8 - - 0.0
23/11:30am 15.8 15.3 12.7 82 1.7 SE 7 11 4 6 - - 0.0
23/11:00am 15.4 14.9 12.5 83 1.6 S 7 13 4 7 - - 0.0
23/10:30am 15.3 14.9 12.4 83 1.6 SSE 6 13 3 7 - - 0.0
23/10:00am 14.9 14.4 12.2 84 1.5 S 6 9 3 5 - - 0.0
23/09:30am 14.9 14.5 12.4 85 1.4 S 6 9 3 5 - - 0.0
23/09:00am 14.6 14.3 12.6 88 1.1 SSE 6 13 3 7 - - 0.0
23/08:30am 14.3 13.9 12.9 91 0.8 SE 7 13 4 7 - - 0.0
23/08:00am 14.1 13.6 12.8 92 0.7 SSE 7 11 4 6 - - 0.0
23/07:30am 14.2 14.0 12.9 92 0.7 S 6 11 3 6 - - 0.0
23/07:00am 14.5 14.3 12.9 90 0.9 SSW 6 13 3 7 - - 0.0
23/06:30am 14.7 15.2 12.9 89 1.0 SW 2 6 1 3 - - 0.0
23/06:00am 14.7 14.4 12.7 88 1.1 SSW 6 9 3 5 - - 0.0
23/05:30am 14.6 14.6 12.5 87 1.2 SSW 4 7 2 4 - - 0.0
23/05:00am 14.5 14.0 12.7 89 1.0 SW 7 11 4 6 - - 0.0
23/04:30am 14.6 14.3 12.8 89 1.0 SW 6 11 3 6 - - 0.0
23/04:00am 14.7 14.5 12.9 89 1.0 WSW 6 11 3 6 - - 0.0
23/03:30am 14.7 14.2 12.7 88 1.1 WSW 7 13 4 7 - - 0.0
23/03:00am 14.8 14.6 13.0 89 1.0 SW 6 9 3 5 - - 0.0
23/02:30am 15.1 14.7 13.1 88 1.1 WSW 7 13 4 7 - - 0.0
23/02:00am 15.0 15.2 13.2 89 1.0 NW 4 7 2 4 - - 0.0
23/01:30am 14.6 14.7 12.6 88 1.1 NW 4 7 2 4 - - 0.0
23/01:00am 14.8 14.9 12.8 88 1.1 SW 4 11 2 6 - - 0.0
23/12:30am 15.1 14.7 13.0 87 1.2 S 7 15 4 8 - - 0.0
23/12:00am 15.2 14.1 13.1 87 1.2 SSW 11 19 6 10 - - 0.0
 
Date/Time
EDT
Tmp

°C
App
Tmp
°C
Dew
Point
°C
Rel
Hum
%
Delta-T

°C
Wind Press
QNH
hPa
Press
MSL
hPa
Rain
since
9 am
mm
Dir
 
Spd
km/h
Gust
km/h
Spd
kts
Gust
kts
22/11:30pm 15.1 14.4 13.1 88 1.1 SSW 9 15 5 8 - - 0.0
22/11:00pm 15.6 15.2 13.1 85 1.4 SW 7 13 4 7 - - 0.0
22/10:30pm 17.9 15.8 12.4 70 3.1 SW 15 22 8 12 - - 0.0
22/10:26pm 18.1 16.4 12.3 69 3.2 SW 13 20 7 11 - - 0.0
22/10:00pm 23.1 23.0 13.3 54 5.7 NE 6 22 3 12 - - 0.0
22/09:30pm 24.1 24.3 13.0 50 6.4 S 4 9 2 5 - - 0.0
22/09:00pm 23.0 24.5 14.6 59 5.0 CALM 0 0 0 0 - - 0.0
22/08:30pm 23.8 24.3 13.9 54 5.8 N 4 7 2 4 - - 0.0
22/08:00pm 25.4 25.6 14.2 50 6.7 NNE 6 11 3 6 - - 0.0
22/07:30pm 27.1 26.3 14.1 44 7.8 NNE 11 17 6 9 - - 0.0
22/07:00pm 27.7 26.6 14.3 43 8.1 NNE 13 20 7 11 - - 0.0
22/06:30pm 28.0 26.3 13.5 41 8.6 NNE 15 24 8 13 - - 0.0
22/06:00pm 28.5 26.5 12.8 38 9.3 NNE 15 22 8 12 - - 0.0
22/05:30pm 28.6 27.0 12.9 38 9.3 NNE 13 22 7 12 - - 0.0
22/05:00pm 28.9 26.6 11.9 35 9.9 NE 15 28 8 15 - - 0.0
22/04:30pm 28.9 27.2 12.3 36 9.7 NNE 13 22 7 12 - - 0.0
22/04:00pm 28.9 27.4 13.2 38 9.3 NNE 13 19 7 10 - - 0.0
22/03:30pm 29.4 28.1 13.6 38 9.5 NNE 13 24 7 13 - - 0.0
22/03:00pm 29.5 27.9 12.9 36 9.8 NNE 13 24 7 13 - - 0.0
22/02:30pm 29.1 26.9 12.1 35 9.9 NNE 15 24 8 13 - - 0.0
22/02:00pm 28.8 27.3 13.1 38 9.3 NNE 13 22 7 12 - - 0.0
22/01:30pm 28.0 26.4 13.9 42 8.4 NNE 15 24 8 13 - - 0.0
22/01:00pm 27.4 25.9 14.1 44 8.0 NNE 15 26 8 14 - - 0.0
22/12:30pm 26.6 24.3 14.0 46 7.5 NNE 19 30 10 16 - - 0.0
22/12:00pm 25.8 23.5 13.0 45 7.5 NNE 17 32 9 17 - - 0.0
22/11:30am 25.1 22.6 12.3 45 7.4 NNE 17 32 9 17 - - 0.0
22/11:00am 24.4 21.3 11.7 45 7.2 NNE 19 32 10 17 - - 0.0
22/10:30am 23.7 20.4 11.7 47 6.8 NNE 20 35 11 19 - - 0.0
22/10:00am 23.1 19.5 11.8 49 6.4 NNE 22 35 12 19 - - 0.0
22/09:30am 22.6 19.9 11.7 50 6.1 NNE 17 28 9 15 - - 0.0
22/09:00am 21.8 18.5 11.5 52 5.8 NNE 20 37 11 20 - - 0.0
22/08:30am 20.9 18.0 11.0 53 5.5 NNE 17 26 9 14 - - 0.0
22/08:00am 19.7 16.8 10.9 57 4.8 NNE 17 30 9 16 - - 0.0
22/07:30am 18.4 16.1 10.5 60 4.3 NNE 13 26 7 14 - - 0.0
22/07:00am 17.1 15.2 10.5 65 3.5 N 11 20 6 11 - - 0.0
22/06:30am 16.5 14.6 10.4 67 3.2 N 11 19 6 10 - - 0.0
22/06:00am 16.6 15.1 10.5 67 3.3 NNE 9 19 5 10 - - 0.0
22/05:30am 16.8 14.9 10.6 67 3.3 N 11 15 6 8 - - 0.0
22/05:00am 16.8 15.0 10.9 68 3.2 N 11 15 6 8 - - 0.0
22/04:30am 16.3 14.9 11.0 71 2.8 NNE 9 17 5 9 - - 0.0
22/04:00am 16.1 15.1 11.1 72 2.7 NNE 7 13 4 7 - - 0.0
22/03:30am 16.4 15.7 11.3 72 2.8 NNE 6 9 3 5 - - 0.0
22/03:00am 16.3 15.3 11.0 71 2.8 NNE 7 11 4 6 - - 0.0
22/02:30am 17.3 16.0 11.1 67 3.4 NNE 9 13 5 7 - - 0.0
22/02:00am 17.8 16.5 11.4 66 3.5 NNE 9 15 5 8 - - 0.0
22/01:30am 16.9 15.7 11.6 71 2.9 NNE 9 15 5 8 - - 0.0
22/01:00am 16.6 16.0 11.7 73 2.7 NNE 6 9 3 5 - - 0.0
22/12:30am 16.9 16.2 12.0 73 2.7 NNE 7 11 4 6 - - 0.0
22/12:00am 16.5 16.0 11.9 74 2.5 NNE 6 9 3 5 - - 0.0
 
Date/Time
EDT
Tmp

°C
App
Tmp
°C
Dew
Point
°C
Rel
Hum
%
Delta-T

°C
Wind Press
QNH
hPa
Press
MSL
hPa
Rain
since
9 am
mm
Dir
 
Spd
km/h
Gust
km/h
Spd
kts
Gust
kts
21/11:30pm 16.8 16.8 12.3 75 2.5 NNE 4 9 2 5 - - 0.0
21/11:00pm 14.2 14.9 12.1 87 1.1 CALM 0 2 0 1 - - 0.0
21/10:30pm 14.6 15.3 12.3 86 1.3 CALM 0 0 0 0 - - 0.0
21/10:00pm 15.2 15.9 12.3 83 1.6 CALM 0 0 0 0 - - 0.0
21/09:30pm 16.1 16.9 12.5 79 2.0 CALM 0 0 0 0 - - 0.0
21/09:00pm 16.9 17.7 12.4 75 2.5 CALM 0 0 0 0 - - 0.0
21/08:30pm 18.6 19.5 12.8 69 3.3 CALM 0 0 0 0 - - 0.0

Latest Capital City Observations: Canberra | Sydney | Melbourne | Brisbane | Adelaide | Perth | Hobart | Darwin

Other Formats:

Comma delimited format used in spreadsheet applications
http://www.bom.gov.au/fwo/IDV60901/IDV60901.95867.axf

JavaScript Object Notation format (JSON) in row-major order
http://www.bom.gov.au/fwo/IDV60901/IDV60901.95867.json